AIC336 VABB-VAAH

Flight info

Callsign AIC336
Flight time N/A
Altitude 35000
Route ANOLI2A ISRIS G208 APANO APANO1A
Aircraft A20N/M-SDE2E3FGHIRWXY/LB1

Departure

Time 2026-05-04 07:12
Airport Chhatrapati Shivaji Maharaj International Airport (VABB)

Arrival

Time N/A
Airport Sardar Vallabh Patel International Airport (VAAH)
Time Latitude Longitude Altitude Speed Heading
2026-05-04 06:36 19.09458 72.87055 33 ft 0 kts 154°
2026-05-04 06:57 19.09471 72.87048 33 ft 1 kts 161°
2026-05-04 06:58 19.09488 72.87045 31 ft 3 kts 186°
2026-05-04 06:58 19.09507 72.87046 30 ft 3 kts 184°
2026-05-04 06:58 19.09525 72.87048 31 ft 3 kts 185°
2026-05-04 06:58 19.09544 72.87049 33 ft 3 kts 185°
2026-05-04 06:59 19.09562 72.87052 30 ft 3 kts 200°
2026-05-04 06:59 19.09578 72.87060 30 ft 0 kts 227°
2026-05-04 07:04 19.09581 72.87063 33 ft 0 kts 227°
2026-05-04 07:04 19.09580 72.87063 33 ft 0 kts 227°
2026-05-04 07:05 19.09546 72.87026 32 ft 6 kts 225°
2026-05-04 07:05 19.09545 72.87025 33 ft 0 kts 225°
2026-05-04 07:06 19.09429 72.86889 33 ft 8 kts 229°
2026-05-04 07:06 19.09367 72.86882 33 ft 11 kts 150°
2026-05-04 07:06 19.09301 72.86948 32 ft 15 kts 134°
2026-05-04 07:07 19.09237 72.87032 32 ft 14 kts 106°
2026-05-04 07:08 19.09055 72.87484 35 ft 18 kts 90°
2026-05-04 07:09 19.09056 72.87628 36 ft 21 kts 89°
2026-05-04 07:09 19.09058 72.87790 37 ft 20 kts 89°
2026-05-04 07:09 19.09059 72.87888 37 ft 8 kts 89°
2026-05-04 07:09 19.09060 72.87959 38 ft 2 kts 89°
2026-05-04 07:10 19.09060 72.87968 38 ft 3 kts 89°
2026-05-04 07:10 19.09061 72.88004 38 ft 7 kts 91°
2026-05-04 07:12 19.08870 72.87405 36 ft 99 kts 267°
2026-05-04 07:12 19.08845 72.86472 32 ft 152 kts 266°
2026-05-04 07:12 19.08790 72.85399 771 ft 135 kts 264°
2026-05-04 07:12 19.08724 72.84306 1024 ft 177 kts 265°
2026-05-04 07:13 19.08652 72.82870 1624 ft 215 kts 265°
2026-05-04 07:13 19.08619 72.81160 2390 ft 244 kts 269°
2026-05-04 07:13 19.08652 72.79323 3544 ft 252 kts 270°
2026-05-04 07:14 19.09686 72.71667 7288 ft 285 kts 311°
2026-05-04 07:14 19.11277 72.70254 7681 ft 318 kts 330°
2026-05-04 07:15 19.13477 72.69497 7835 ft 350 kts 351°
2026-05-04 07:15 19.15999 72.69598 7989 ft 378 kts
2026-05-04 07:15 19.18509 72.70558 8243 ft 399 kts 26°
2026-05-04 07:15 19.20910 72.72036 8727 ft 396 kts 26°
2026-05-04 07:16 19.23427 72.73164 8902 ft 382 kts 15°
2026-05-04 07:16 19.25928 72.73729 9021 ft 353 kts
2026-05-04 07:16 19.28289 72.73915 9137 ft 327 kts 360°
2026-05-04 07:16 19.30480 72.74011 9251 ft 304 kts
2026-05-04 07:17 19.32507 72.74327 9332 ft 288 kts
2026-05-04 07:17 19.34492 72.74633 9396 ft 289 kts
2026-05-04 07:17 19.36487 72.74926 9932 ft 290 kts
2026-05-04 07:17 19.38544 72.75228 10457 ft 308 kts
2026-05-04 07:18 19.40752 72.75556 10751 ft 333 kts
2026-05-04 07:18 19.43087 72.75910 11302 ft 345 kts
2026-05-04 07:18 19.45470 72.76278 12171 ft 346 kts
2026-05-04 07:18 19.47875 72.76650 12972 ft 352 kts
2026-05-04 07:19 19.50326 72.77027 13662 ft 359 kts
2026-05-04 07:19 19.52818 72.77410 14344 ft 365 kts
2026-05-04 07:19 19.55320 72.77797 15048 ft 369 kts
2026-05-04 07:19 19.57869 72.78192 15753 ft 373 kts
2026-05-04 07:20 19.60461 72.78592 16416 ft 379 kts
2026-05-04 07:20 19.63082 72.78995 17124 ft 382 kts
2026-05-04 07:20 19.65734 72.79405 17805 ft 387 kts
2026-05-04 07:20 19.68413 72.79819 18443 ft 391 kts
2026-05-04 07:22 19.87724 72.82798 22832 ft 412 kts
2026-05-04 07:22 19.90546 72.83233 23400 ft 415 kts
2026-05-04 07:23 19.93403 72.83675 23927 ft 416 kts
2026-05-04 07:23 19.96289 72.84121 24359 ft 421 kts
2026-05-04 07:23 19.99194 72.84571 24853 ft 423 kts
2026-05-04 07:23 20.02118 72.85024 25292 ft 426 kts
2026-05-04 07:24 20.05064 72.85480 25723 ft 429 kts
2026-05-04 07:24 20.08030 72.85940 26118 ft 432 kts
2026-05-04 07:24 20.11017 72.86375 26528 ft 434 kts
2026-05-04 07:24 20.13007 72.86631 26789 ft 436 kts
2026-05-04 07:25 20.16035 72.87003 27162 ft 439 kts
2026-05-04 07:26 20.37680 72.89741 29515 ft 456 kts
2026-05-04 07:27 20.40838 72.90145 29817 ft 458 kts
2026-05-04 07:27 20.44017 72.90552 30075 ft 461 kts
2026-05-04 07:27 20.47212 72.90962 30346 ft 463 kts
2026-05-04 07:27 20.50423 72.91373 30616 ft 464 kts
2026-05-04 07:28 20.53635 72.91786 30884 ft 466 kts
2026-05-04 07:28 20.56861 72.92200 31214 ft 466 kts
2026-05-04 07:28 20.60076 72.92613 31583 ft 465 kts
2026-05-04 07:28 20.63285 72.93027 32012 ft 463 kts
2026-05-04 07:29 20.66475 72.93438 32389 ft 462 kts
2026-05-04 07:29 20.69593 72.93838 32712 ft 461 kts
2026-05-04 07:29 20.72781 72.94247 33038 ft 461 kts
2026-05-04 07:29 20.75960 72.94625 33368 ft 458 kts 360°
2026-05-04 07:30 20.79141 72.94759 33688 ft 456 kts 357°
2026-05-04 07:30 20.82311 72.94869 33968 ft 456 kts 358°
2026-05-04 07:30 20.85475 72.94985 34232 ft 455 kts 358°
2026-05-04 07:30 20.88643 72.95103 34487 ft 455 kts 357°
2026-05-04 07:31 20.91822 72.95219 34663 ft 457 kts 357°
2026-05-04 07:31 20.95002 72.95337 34766 ft 456 kts 357°
2026-05-04 07:33 21.20304 72.96275 34823 ft 455 kts 358°
2026-05-04 07:33 21.26631 72.96606 34816 ft 455 kts 358°
2026-05-04 07:34 21.32965 72.96949 34812 ft 455 kts 358°
2026-05-04 07:34 21.39304 72.97281 34804 ft 455 kts 358°
2026-05-04 07:35 21.45597 72.97608 34803 ft 455 kts 358°
2026-05-04 07:35 21.51933 72.97937 34803 ft 455 kts 358°
2026-05-04 07:36 21.58277 72.98267 34800 ft 456 kts 358°
2026-05-04 07:38 21.83550 72.99567 34775 ft 455 kts 358°
2026-05-04 07:38 21.89873 72.99885 34779 ft 455 kts 358°
2026-05-04 07:39 21.96202 73.00198 34770 ft 454 kts 358°
2026-05-04 07:39 22.02522 73.00506 34768 ft 454 kts 357°
2026-05-04 07:40 22.08792 73.00806 34762 ft 454 kts 357°
2026-05-04 07:40 22.15106 73.01102 34760 ft 454 kts 357°
2026-05-04 07:41 22.21420 73.01391 34765 ft 454 kts 357°
2026-05-04 07:41 22.27706 73.01672 34759 ft 454 kts 357°
2026-05-04 07:42 22.34014 73.01947 34755 ft 454 kts 357°
2026-05-04 07:42 22.40326 73.02213 34754 ft 454 kts 357°
2026-05-04 07:43 22.46641 73.02470 34752 ft 454 kts 357°
2026-05-04 07:43 22.52973 73.02720 34764 ft 454 kts 356°
2026-05-04 07:44 22.59292 73.02960 34758 ft 454 kts 356°
2026-05-04 07:44 22.65569 73.03189 34758 ft 454 kts 356°
2026-05-04 07:45 22.71877 73.03410 34754 ft 454 kts 356°
2026-05-04 07:45 22.78183 73.03620 34752 ft 453 kts 356°
2026-05-04 07:46 22.84501 73.03822 34761 ft 454 kts 356°
2026-05-04 07:46 22.90809 73.04012 34758 ft 453 kts 356°
2026-05-04 07:47 22.97121 73.04192 34759 ft 453 kts 356°
2026-05-04 07:49 23.22255 73.04804 34769 ft 452 kts 356°
2026-05-04 07:49 23.28547 73.04928 34764 ft 452 kts 355°
2026-05-04 07:50 23.34831 73.05039 34768 ft 451 kts 355°
2026-05-04 07:50 23.41109 73.05137 34765 ft 451 kts 355°
2026-05-04 07:51 23.47386 73.05224 34769 ft 448 kts 355°
2026-05-04 07:51 23.53621 73.05300 34767 ft 448 kts 355°
2026-05-04 07:52 23.59821 73.05363 34771 ft 448 kts 355°
2026-05-04 07:52 23.66060 73.05414 34772 ft 448 kts 355°
2026-05-04 07:54 23.90974 73.05485 34784 ft 447 kts 354°
2026-05-04 07:55 23.97200 73.05472 34788 ft 447 kts 354°
2026-05-04 07:55 24.03420 73.05446 34791 ft 447 kts 354°
2026-05-04 07:56 24.09644 73.05409 34792 ft 447 kts 354°
2026-05-04 07:56 24.15860 73.05360 34793 ft 446 kts 354°
2026-05-04 07:57 24.22030 73.05300 34793 ft 446 kts 354°
2026-05-04 07:57 24.26809 73.05245 34790 ft 445 kts 354°